Location: Oberkirch
(48.5323°N, 8.0787°E)
Time: 17:43:18
(UTC+00:00)

Cosmos 1809 Rocket - Pass Details

Date: 08 November 2025
Orbit: 940 x 963 km, 82.5° (Epoch: 09 December)

Event Time Altitude Azimuth Distance (km) Brightness Sun altitude
Rises 04:15:15 0° 201° (SSW) 3,611 7.3 -21.6°
Reaches altitude 10° 04:17:47 10° 205° (SSW) 2,666 6.6 -21.2°
Maximum altitude 04:23:47 57° 284° (WNW) 1,103 4.4 -20.2°
Drops below altitude 10° 04:29:48 10° 3° (N) 2,672 6.8 -19.2°
Sets 04:32:21 0° 8° (N) 3,619 7.5 -18.8°
